Location: Kien
(46.6154°N, 7.6877°E)
Time: 09:39:59
(UTC+00:00)

Daily predictions for brighter satellites

Satellite Brightness Start Highest point End
(mag) Time Altitude Azimuth Time Altitude Azimuth Time Altitude Azimuth
CZ-4C R/B 4.1 18:17:22 10° W 18:22:04 30° NNW 18:27:35 10° NNE
Cosmos 1452 Rocket 4.3 18:17:17 10° NNW 18:22:28 58° WSW 18:27:37 10° S
USA 81 4.2 18:17:33 10° N 18:22:44 54° E 18:27:53 10° SSE
STARLINK-1237 4.1 18:20:27 10° SSW 18:24:12 39° SE 18:27:58 10° ENE
STARLINK-1083 3.8 18:20:16 10° WNW 18:24:16 59° NNE 18:28:16 10° ESE
STARLINK-1245 3.0 18:22:09 10° SW 18:25:13 58° SE 18:28:18 10° ENE
Cosmos 1709 Rocket 4.5 18:19:41 10° N 18:25:29 39° ENE 18:31:10 10° SE
STARLINK-1238 3.0 18:22:35 10° SW 18:25:39 58° SE 18:28:45 10° ENE
STARLINK-1205 2.9 18:23:30 10° SW 18:26:35 59° SE 18:29:39 10° ENE
Cosmos 1331 Rocket 4.1 18:21:43 10° NNW 18:26:49 57° ENE 18:31:53 10° SE
STARLINK-1204 2.9 18:23:56 10° SW 18:27:00 60° SE 18:30:05 10° ENE
Cosmos 1674 2.6 18:24:27 10° N 18:28:14 82° E 18:31:58 10° S
Cosmos 2219 Rocket 3.6 18:22:55 10° SW 18:28:17 43° NW 18:33:40 10° NNE
STARLINK-1202 4.0 18:24:59 10° SSW 18:28:47 42° SE 18:32:37 10° ENE
STARLINK-1125 3.8 18:24:52 10° WNW 18:28:53 62° NNE 18:32:54 10° ESE
Orbus 7S? 3.4 18:26:25 10° WNW 18:29:30 46° SW 18:31:51 10° SSE
SL-14 R/B 4.1 18:26:17 10° N 18:29:58 32° ENE 18:33:37 10° SE
KORONAS-FOTON 3.7 18:27:30 10° N 18:31:22 82° E 18:35:10 10° S
STARLINK-1109 3.7 18:29:09 10° WNW 18:33:11 66° NNE 18:37:10 10° ESE
STARLINK-1246 3.9 18:29:52 10° SW 18:33:46 46° SE 18:37:40 10° ENE
Cosmos 1943 Rocket 3.4 18:32:27 10° N 18:36:58 25° NE 18:41:19 11° ESE
Cosmos 1980 3.9 18:32:01 10° SSW 18:37:43 83° WNW 18:43:27 10° NNE
STARLINK-1091 3.6 18:33:49 10° WNW 18:37:52 69° NNE 18:41:39 12° ESE
Cosmos 1766 3.2 18:34:03 10° S 18:38:02 76° E 18:42:02 10° NNE
S3M 4.0 18:33:32 10° S 18:39:54 79° E 18:46:19 10° N
Ariane Rocket 3.0 18:36:38 10° SSE 18:41:42 74° ENE 18:46:46 10° N
YAOGAN 1 4.3 18:38:01 10° SSW 18:42:00 36° W 18:46:01 10° NNW
STARLINK-1224 3.7 18:38:46 10° SW 18:42:41 54° SE 18:46:38 10° ENE
BREEZE-M DEB (TANK) 4.1 18:29:58 10° WNW 18:43:35 55° SW 18:47:06 10° SE
Cosmos 1386 Rocket 4.4 18:37:38 10° N 18:43:44 84° E 18:49:44 10° S
SL-08 ROCKET BODY 4.4 18:37:45 10° N 18:43:57 82° E 18:49:59 10° S
Cosmos 1455 Rocket 3.0 18:40:44 10° S 18:44:59 61° E 18:49:19 10° NNE
STARLINK-1225 3.6 18:43:25 10° SW 18:47:22 58° SE 18:51:21 10° ENE
Cosmos 1110 Rocket 4.0 18:42:26 10° NNW 18:47:44 88° WSW 18:52:56 10° SSE
Cosmos 332 Rocket 4.4 18:44:04 10° NNW 18:48:55 60° WSW 18:53:44 10° S
STARLINK-1203 3.5 18:45:24 10° SW 18:49:18 64° SE 18:53:13 10° ENE
STARLINK-1072 3.5 18:47:01 10° WNW 18:51:02 83° NNE 18:54:14 15° ESE
SL-16 R/B 2.4 18:45:50 10° S 18:51:12 47° ESE 18:56:37 10° NE
Cosmos 1892 Rocket 3.8 18:46:54 10° NNW 18:51:23 76° W 18:55:51 10° S
Cosmos 2333 Rocket 4.3 18:46:57 10° WSW 18:51:54 30° NW 18:56:51 10° N
STARLINK-1230 3.6 18:48:01 10° SW 18:52:00 62° SE 18:56:00 10° ENE
Cosmos 1626 Rocket 4.0 18:48:48 10° N 18:52:58 40° ENE 18:57:04 10° SE
USA 186 1.8 18:50:43 10° SSE 18:54:08 69° ENE 18:57:32 10° N
Cosmos 1953 3.8 18:53:54 16° ESE 18:55:07 18° E 18:57:48 10° NE
ARGOS Delta rocket 4.1 18:50:05 10° SSE 18:55:10 89° WSW 19:00:34 10° NNW
STARLINK-1234 3.2 18:52:21 10° WSW 18:55:20 61° NNW 18:58:19 10° NE
STARLINK-1096 3.5 18:51:28 10° WNW 18:55:29 87° NNE 18:58:31 17° ESE
Cosmos 1626 2.1 18:52:17 10° N 18:55:56 57° ENE 18:59:35 10° SSE
STARLINK-1243 3.5 18:52:41 10° SW 18:56:41 67° SE 19:00:42 10° ENE
Okean 1-7 Rocket 3.8 18:54:54 10° NNW 18:59:18 73° W 19:03:40 10° S
STARLINK-1101 4.5 18:55:46 10° WNW 18:59:43 41° NNE 19:02:46 16° E
STARLINK-1079 3.5 18:55:57 10° WNW 18:59:58 88° SSW 19:02:49 18° ESE
Cosmos 1602 Rocket 4.1 18:56:20 10° N 19:00:31 38° ENE 19:03:54 14° SE
STARLINK-1236 3.5 18:57:19 10° SW 19:01:20 72° SSE 19:05:22 10° ENE
ATLAS 2AS CENTAUR R/B 4.2 18:57:48 10° NW 19:04:19 28° NNE 19:10:15 11° ENE
STARLINK-1116 3.5 19:00:25 10° WNW 19:04:26 83° SSW 19:07:08 20° SE
STARLINK-1102 4.4 19:00:45 10° WNW 19:04:43 43° NNE 19:07:32 17° E
H-2A R/B 2.2 19:00:41 10° SSE 19:06:01 84° WSW 19:11:15 10° NNW
STARLINK-1111 4.3 19:05:44 10° WNW 19:09:43 44° NNE 19:12:19 19° E
Aureole 2 Rocket 4.1 19:07:16 10° N 19:09:52 19° ENE 19:10:31 18° ENE
Cosmos 883 Rocket 4.4 19:03:56 10° S 19:10:06 81° E 19:16:24 10° N
STARLINK-1269 3.5 19:06:42 10° SW 19:10:44 83° SSE 19:14:25 12° ENE
Cosmos 1544 Rocket 3.5 19:08:02 10° S 19:12:25 89° ESE 19:16:53 10° N
ERBS 4.3 19:09:54 10° W 19:12:50 26° NNW 19:15:45 10° NE
STARLINK-1094 3.6 19:09:24 10° WNW 19:13:25 73° SSW 19:15:46 23° SE
STARLINK-1073 4.3 19:10:43 10° WNW 19:14:43 46° NNE 19:17:06 22° E
USA 234 3.2 19:08:44 10° ENE 19:15:14 64° SE 19:21:42 10° SW
STARLINK-1200 3.5 19:11:23 10° WSW 19:15:26 88° SSE 19:18:56 14° ENE
Cosmos 2297 3.7 19:09:49 10° NNW 19:15:31 87° WSW 19:20:56 12° SSE
CZ-2C R/B 3.9 19:11:14 10° NNE 19:15:55 54° E 19:20:31 10° S
STARLINK-1117 3.7 19:13:56 10° WNW 19:17:55 68° SW 19:20:07 25° SE
STARLINK-1121 4.2 19:15:42 10° WNW 19:19:44 48° NNE 19:21:53 24° E
STARLINK-1192 3.5 19:16:02 10° WSW 19:20:05 87° NNW 19:23:24 15° ENE
Cosmos 2237 Rocket 3.5 19:16:14 10° SW 19:21:35 43° NW 19:26:58 10° NNE
STARLINK-1078 3.8 19:18:26 10° WNW 19:22:24 63° SW 19:24:26 27° SE
STARLINK-1106 4.1 19:20:40 10° WNW 19:24:43 50° NNE 19:26:39 27° E
STARLINK-1244 3.6 19:20:49 10° WSW 19:24:53 82° NNW 19:28:01 16° ENE
Cosmos 1302 Rocket 4.0 19:19:58 10° NNW 19:25:17 88° WSW 19:29:43 15° SSE
STARLINK-1201 3.7 19:22:07 10° WSW 19:25:18 51° NNW 19:27:31 18° NE
STARLINK-1108 3.9 19:22:58 10° WNW 19:26:56 58° SW 19:28:47 29° SSE
CZ-2C R/B 2.8 19:23:00 10° NNE 19:27:57 43° E 19:32:38 11° SSE
Cosmos 1992 Rocket 4.5 19:23:26 10° N 19:28:24 42° ENE 19:30:33 28° ESE
Cosmos 1269 Rocket 4.3 19:23:25 10° SSW 19:28:41 72° WNW 19:34:00 10° NNE
Cosmos 2184 Rocket 4.3 19:22:39 10° N 19:28:43 46° ENE 19:32:14 24° SE
Cosmos 1758 Rocket 4.2 19:25:10 10° N 19:29:11 35° ENE 19:30:09 31° ESE
STARLINK-1138 3.6 19:25:31 10° WSW 19:29:34 77° NNW 19:32:32 18° ENE
STARLINK-1112 4.0 19:25:39 10° WNW 19:29:44 53° NNE 19:31:27 30° E
STARLINK-1209 4.1 19:27:59 10° W 19:30:43 35° NNW 19:32:14 20° NE
STARLINK-1066 4.4 19:28:25 10° WNW 19:31:13 29° SW 19:32:18 23° S
STARLINK-1071 4.0 19:27:29 10° WNW 19:31:26 54° SW 19:33:08 30° SSE
STARLINK-1081 4.4 19:28:53 10° WNW 19:31:39 29° SW 19:32:41 23° S
STARLINK-1228 4.2 19:29:00 10° W 19:31:41 34° NNW 19:33:08 20° NE
STARLINK-1070 4.4 19:29:21 10° WNW 19:32:06 28° SW 19:33:06 23° S
STARLINK-1124 4.1 19:28:24 10° WNW 19:32:27 54° SW 19:34:14 30° SSE
STARLINK-1069 4.4 19:29:45 10° WNW 19:32:32 28° SW 19:33:34 23° S
STARLINK-1085 4.5 19:30:12 10° WNW 19:32:58 28° SW 19:34:00 23° S
STARLINK-1086 4.4 19:30:43 10° WNW 19:33:26 28° SW 19:34:25 23° S
STARLINK-1095 4.5 19:31:09 10° WNW 19:33:53 27° SW 19:34:50 23° S
ARGOS 3.7 19:28:51 10° S 19:34:10 59° W 19:39:31 10° NNW
STARLINK-1077 4.5 19:31:36 10° WNW 19:34:19 27° SW 19:35:16 23° S
STARLINK-1143 3.7 19:30:19 10° WSW 19:34:22 73° NNW 19:37:08 20° NE
STARLINK-1128 4.0 19:30:39 10° WNW 19:34:45 56° NNE 19:36:15 34° E
STARLINK-1075 4.5 19:32:04 10° WNW 19:34:47 27° SW 19:35:42 23° S
STARLINK-1093 4.5 19:32:29 10° WNW 19:35:14 27° SW 19:36:11 23° S
Cosmos 2251 Rocket 3.9 19:30:35 10° S 19:35:32 41° ESE 19:40:34 10° NE
SL-8 R/B 3.8 19:30:52 10° W 19:35:39 71° N 19:38:02 29° E
STARLINK-1110 4.1 19:32:02 10° WNW 19:35:57 50° SW 19:37:29 31° SSE
STARLINK-1087 4.5 19:33:26 10° W 19:36:07 26° SW 19:37:00 23° SSW
SL-24 R/B 4.0 19:33:08 10° NNE 19:37:51 80° ESE 19:41:56 10° S
STARLINK-1113 3.9 19:35:38 10° WNW 19:39:44 58° NNE 19:41:02 39° E
Cosmos 1470 3.0 19:37:27 10° SSW 19:41:18 68° W 19:45:12 10° N
STARLINK-1119 3.8 19:40:36 10° WNW 19:44:43 62° NNE 19:45:48 44° E
STARLINK-1241 3.9 19:40:50 10° WSW 19:44:48 64° NNW 19:47:06 24° NE
STARLINK-1122 4.3 19:41:14 10° WNW 19:45:04 43° SW 19:46:17 33° S
STARLINK-1233 4.2 19:42:11 10° W 19:45:08 38° NNW 19:46:21 26° NNE
SL-08 RB Rocket 4.3 19:40:56 10° S 19:45:21 56° W 19:49:52 10° NNW
Cosmos 2315 Rocket 4.3 19:39:14 10° SSW 19:45:32 71° W 19:51:55 10° N
STARLINK-1212 4.2 19:42:38 10° W 19:45:36 38° NNW 19:46:46 26° NNE
STARLINK-1105 4.2 19:43:05 10° W 19:46:03 37° NNW 19:47:13 26° NNE
STARLINK-1206 4.2 19:43:35 10° W 19:46:31 37° NNW 19:47:37 27° NNE
SJ-6B 4.2 19:42:42 10° SSW 19:46:31 40° W 19:50:26 10° NNW
MetOp-A 4.2 19:42:29 15° S 19:46:54 79° WSW 19:52:18 10° NNW
STARLINK-1247 4.2 19:44:02 10° W 19:46:58 37° NNW 19:48:03 27° NNE
Resurs 1-3 3.6 19:44:44 26° S 19:47:13 83° WSW 19:51:38 10° NNW
STARLINK-1227 4.2 19:44:26 10° W 19:47:24 37° NNW 19:48:30 27° NNE
ISS -3.2 19:44:35 10° WNW 19:47:51 48° NNE 19:48:11 46° NE
STARLINK-1218 4.2 19:44:56 10° W 19:47:52 37° NNW 19:48:55 27° NNE
STARLINK-1226 4.2 19:45:24 10° W 19:48:20 36° NNW 19:49:23 27° NNE
STARLINK-1254 4.3 19:45:48 10° W 19:48:45 36° NNW 19:49:48 27° NNE
ERS-1 Rocket 4.3 19:48:48 23° ENE 19:49:05 23° ENE 19:52:57 10° N
STARLINK-1215 4.3 19:46:18 10° W 19:49:13 36° NNW 19:50:14 28° NNE
Cosmos 1758 3.8 19:45:10 10° SSW 19:49:14 62° WNW 19:53:18 10° N
STARLINK-1239 4.0 19:45:26 10° WSW 19:49:24 60° NNW 19:51:30 26° NE
Cosmos 2154 Rocket 4.4 19:43:34 10° N 19:49:37 43° ENE 19:51:33 34° ESE
STARLINK-1231 4.3 19:46:44 10° W 19:49:40 36° NNW 19:50:39 28° NNE
STARLINK-1126 4.4 19:45:53 10° WNW 19:49:41 40° SW 19:50:44 33° S
STARLINK-1114 3.7 19:45:35 10° WNW 19:49:43 65° NNE 19:50:36 50° E
STARLINK-1232 4.3 19:47:39 10° W 19:50:35 36° NNW 19:51:31 28° NNE
STARLINK-1217 4.3 19:48:07 10° W 19:51:02 35° NNW 19:51:58 28° NNE
STARLINK-1208 4.3 19:48:32 10° W 19:51:28 36° NNW 19:52:25 28° NNE
STARLINK-1229 4.3 19:49:01 10° W 19:51:56 35° NNW 19:52:48 29° NNE
STARLINK-1271 4.3 19:49:30 10° W 19:52:24 35° NNW 19:53:17 29° NNE
BREEZE-M DEB (TANK) 3.4 19:46:22 10° WNW 19:52:34 67° N 19:53:10 53° ENE
IRIDIUM 104 4.3 19:47:32 10° N 19:52:48 89° W 19:56:26 20° S
STARLINK-1270 4.3 19:49:57 10° W 19:52:51 35° NNW 19:53:42 29° NNE
CZ-2C R/B 4.4 19:48:20 10° SSW 19:52:59 36° W 19:57:29 10° NNW
BREEZE M DEB (TANK) 4.1 19:43:35 10° SW 19:53:14 39° SSE 19:53:49 38° SE
STARLINK-1154 4.3 19:50:23 10° W 19:53:18 35° NNW 19:54:07 29° NNE
STARLINK-1240 4.1 19:50:04 10° WSW 19:54:02 57° NNW 19:55:56 28° NE
STARLINK-1197 4.3 19:51:18 10° W 19:54:12 34° NNW 19:54:59 29° NNE
Resurs 01 Rocket 1.5 19:53:04 41° SSE 19:54:34 83° ENE 19:59:00 10° NNW
STARLINK-1189 4.3 19:51:45 10° W 19:54:39 34° NNW 19:55:26 29° NNE
STARLINK-1130 (DARKSAT) 3.6 19:50:33 10° WNW 19:54:42 69° NNE 19:55:22 56° E
SPOT 5 4.4 19:56:05 18° NE 19:56:05 18° NE 19:58:29 10° NNE
STARLINK-1187 4.4 19:52:39 10° W 19:55:33 32° NNW 19:56:21 28° NNE
STARLINK-1188 4.3 19:52:40 10° W 19:55:34 34° NNW 19:56:17 30° NNE
STARLINK-1198 4.3 19:52:54 10° W 19:55:48 34° NNW 19:56:31 30° NNE
Cosmos 2369 Rocket 2.2 19:50:15 10° NNW 19:55:57 66° ENE 19:57:50 42° SE
STARLINK-1199 4.3 19:54:36 10° W 19:57:31 34° NNW 19:58:13 30° NNE
STARLINK-1191 4.4 19:55:05 10° W 19:57:59 34° NNW 19:58:39 30° NNE
STARLINK-1210 4.4 19:55:32 10° W 19:58:26 33° NNW 19:59:04 30° N
STARLINK-1216 4.1 19:54:43 10° W 19:58:40 55° NNW 20:00:23 30° NE
STARLINK-1221 4.4 19:55:59 10° W 19:58:54 33° NNW 19:59:33 30° N
STARLINK-1219 4.4 19:56:26 10° W 19:59:21 33° NNW 19:59:57 30° N
Cosmos 2263 4.4 19:54:07 10° NNW 19:59:38 53° ENE 20:01:00 43° ESE
STARLINK-1084 3.5 19:55:31 10° WNW 19:59:41 74° NNE 20:00:09 64° E
STARLINK-1222 4.4 19:56:53 10° W 19:59:47 33° NNW 20:00:22 30° N
STARLINK-1211 4.4 19:57:21 10° W 20:00:14 33° NNW 20:00:49 30° N
STARLINK-1214 4.4 19:57:49 10° W 20:00:42 33° NNW 20:01:15 30° N
STARLINK-1245 4.4 19:58:19 10° W 20:01:11 32° NNW 20:01:40 30° N
STARLINK-1238 4.4 19:58:44 10° W 20:01:37 33° NNW 20:02:07 30° N
IRIDIUM 114 4.4 19:56:43 10° N 20:01:57 75° W 20:05:35 20° S
STARLINK-1205 4.4 19:59:41 10° W 20:02:33 32° NNW 20:02:59 31° N
STARLINK-1204 4.4 20:00:07 10° W 20:02:58 32° NNW 20:03:23 31° N
STARLINK-1237 4.2 19:59:24 10° W 20:03:20 52° NNW 20:04:52 32° NE
STARLINK-1098 3.5 20:00:29 10° WNW 20:04:39 78° NNE 20:04:55 73° ENE
SPOT 3 Rocket 4.4 20:00:43 13° S 20:05:11 49° W 20:10:16 10° NNW
Cosmos 1726 2.5 20:06:30 53° NNE 20:06:30 53° NNE 20:09:29 10° NNE
Landsat 7 4.3 20:06:34 41° ENE 20:06:34 41° ENE 20:11:01 10° N
STARLINK-1202 4.3 20:04:03 10° W 20:07:59 50° NNW 20:09:18 34° NNE
Meteor 1-21 Rocket 4.3 20:02:53 10° NNW 20:08:26 71° W 20:11:31 27° S
Nadezhda 1 Rocket 4.1 20:06:17 38° SSE 20:08:34 57° E 20:14:48 10° NNE
STARLINK-1123 3.5 20:05:30 10° WNW 20:09:39 83° NNE 20:09:44 82° NE
Cosmos 2228 3.7 20:11:03 41° NE 20:11:03 41° NE 20:14:09 10° NNE
MOS 1 Rocket 3.7 20:07:46 10° N 20:12:58 76° WNW 20:18:20 10° SSW
STARLINK-1246 4.4 20:09:11 10° W 20:13:08 48° NNW 20:14:18 36° NNE
STARLINK-1097 3.5 20:10:27 10° WNW 20:14:30 84° NW 20:14:30 84° NW
Cosmos 292 Rocket 3.9 20:13:25 10° NNW 20:18:11 70° WSW 20:19:07 54° SSW
Cosmos 1943 3.4 20:19:28 49° E 20:19:28 49° E 20:24:09 10° NE
STARLINK-1099 3.7 20:15:27 10° WNW 20:19:17 75° WNW 20:19:17 75° WNW
Cosmos 1943 Rocket 2.4 20:15:41 10° NNW 20:21:10 64° WSW 20:22:51 43° S
Cosmos 2074 Rocket 4.1 20:17:17 10° NNW 20:23:33 72° W 20:26:45 31° S
NOSS 3-4 (A) 4.4 20:17:13 10° NNW 20:23:46 45° NE 20:25:57 36° E
NOSS 3-4 (C) 4.4 20:17:19 10° NNW 20:23:52 45° NE 20:26:03 36° E
STARLINK-1104 3.9 20:20:26 10° WNW 20:24:04 66° W 20:24:04 66° W
Cosmos 1328 4.4 20:23:40 10° N 20:26:45 51° N 20:26:45 51° N
STARLINK-1144 4.1 20:25:24 10° WNW 20:28:50 58° W 20:28:50 58° W
Cosmos 1953 3.6 20:29:29 25° SW 20:31:12 38° WNW 20:34:57 10° N
Meteor 2-10 4.3 20:28:34 24° SSW 20:31:51 68° WNW 20:37:23 10° N
SPOT 1/Viking Rocket 3.6 20:32:06 64° ENE 20:32:06 64° ENE 20:37:10 10° N
NOSS 3-3 (A) 3.7 20:27:09 10° SSW 20:32:59 76° SE 20:39:35 10° NE
NOSS 3-3 (C) 3.7 20:27:16 10° SSW 20:33:05 75° SE 20:39:41 10° NE
Spot 2 Rocket 3.4 20:33:06 73° S 20:33:36 83° WSW 20:38:45 10° NNW
STARLINK-1103 4.3 20:30:23 10° WNW 20:33:37 51° W 20:33:37 51° W
SL-16 R/B 3.9 20:30:28 10° WSW 20:35:31 32° NW 20:40:35 10° NNE
Cosmos 2084 Rocket 4.0 20:31:15 10° NW 20:35:19 54° WSW 20:35:19 54° WSW
Cosmos 1610 Rocket 4.4 20:31:22 10° N 20:37:37 85° W 20:39:03 56° S
IGS 5A 4.3 20:42:15 45° N 20:42:15 45° N 20:45:12 10° NNW
Aureole 2 Rocket 4.5 20:40:35 10° NW 20:42:44 27° WNW 20:42:44 27° WNW
Terra 3.0 20:49:36 33° NNE 20:49:36 33° NNE 20:52:38 10° N
Cosmos 2341 Rocket 3.9 20:47:27 10° N 20:53:49 72° E 20:53:50 72° E
ATLAS 2AS CENTAUR R/B 2.8 20:49:07 10° NW 20:56:47 67° NE 20:57:41 62° E
Cosmos 1603 3.9 20:53:25 24° SW 20:56:49 66° WNW 21:02:26 10° NNE
USA 234 3.9 20:51:51 10° NE 20:58:11 54° NNW 21:04:30 10° W
Aureole 1 Rocket 4.2 21:07:14 74° SSE 21:07:52 80° ESE 21:14:34 10° NNE
CZ-2C R/B 4.4 21:03:41 10° N 21:08:03 28° WNW 21:12:24 10° WSW
COSMOS 2455 3.5 21:05:52 10° NNW 21:11:09 44° NE 21:11:09 44° NE
Cosmos 2218 Rocket 4.3 21:16:21 10° N 21:21:25 59° NNE 21:21:25 59° NNE
Cosmos 1656 Rocket 4.3 21:17:52 10° NNW 21:22:37 51° WNW 21:22:37 51° WNW
ERS-1 Rocket 4.0 21:28:47 42° NW 21:28:47 42° NW 21:32:28 10° NNW
Resurs 01 Rocket 4.4 21:30:38 10° W 21:31:39 11° W 21:32:49 10° WNW
Cosmos 2181 Rocket 4.3 21:33:10 60° N 21:33:10 60° N 21:38:12 10° N
Cosmos 2369 Rocket 4.1 21:35:17 10° NW 21:39:26 21° W 21:39:39 21° WSW
CZ-4C R/B 4.4 21:58:22 10° NNW 22:03:49 25° NNE 22:06:33 21° NE
Mayak 1.8 22:06:37 10° N 22:06:55 12° N 22:06:55 12° N
NOSS 3-4 (A) 4.5 22:08:05 10° NW 22:13:23 47° W 22:13:23 47° W
NOSS 3-4 (C) 4.5 22:08:11 10° NW 22:13:29 47° W 22:13:29 47° W
Terra 4.3 22:28:30 17° NW 22:28:30 17° NW 22:29:56 10° NW
Cosmos 1697 Rocket 4.4 22:22:58 10° NNW 22:26:03 27° NNE 22:26:03 27° NNE
ATLAS 2AS CENTAUR R/B 4.2 22:40:50 10° NW 22:45:08 27° W 22:45:08 27° W
Cosmos 1980 Rocket 4.1 22:48:05 10° NNW 22:50:55 24° NNE 22:50:55 24° NNE
